[Date Prev][Date Next][Thread Prev][Thread Next] - [Date Index][Thread Index][Author Index]

2 Line ISS Keps 1-20



ISS
1 25544U 98067A   03020.18130839  .00028226  00000-0  35509-3 0  6035
2 25544  51.6377  43.7198 0005761  56.1889  72.6606 15.59414813237919


----
Via the sarex mailing list at AMSAT.ORG courtesy of AMSAT-NA.
To unsubscribe, send "unsubscribe sarex" to Majordomo@amsat.org



AMSAT Top AMSAT Home